Time,TemperatureF,DewpointF,PressureIn,WindDirection,WindDirectionDegrees,WindSpeedMPH,WindSpeedGustMPH,Humidity,HourlyPrecipIn,Conditions,Clouds,dailyrainin,SoftwareType,DateUTC
2013-05-10 00:00:00,57.9,52.4,0.00,West,271,0.0,0.0,82,0.00,,,0.00,Weather View 32 v70,2013-05-10 04:00:00,
2013-05-10 00:15:00,57.7,52.6,0.00,West,271,0.0,0.0,83,0.00,,,0.00,Weather View 32 v70,2013-05-10 04:15:00,
2013-05-10 00:30:00,57.6,52.4,0.00,West,271,0.0,0.0,83,0.00,,,0.00,Weather View 32 v70,2013-05-10 04:30:00,
2013-05-10 00:45:00,57.6,52.7,0.00,West,271,0.0,0.0,84,0.00,,,0.00,Weather View 32 v70,2013-05-10 04:45:00,
2013-05-10 01:00:00,57.2,52.4,0.00,West,271,0.0,0.0,84,0.00,,,0.00,Weather View 32 v70,2013-05-10 05:00:00,
2013-05-10 01:15:00,57.2,52.4,0.00,West,271,0.0,0.0,84,0.00,,,0.00,Weather View 32 v70,2013-05-10 05:15:00,
2013-05-10 01:30:00,57.2,53.0,0.00,West,271,0.0,0.0,86,0.00,,,0.00,Weather View 32 v70,2013-05-10 05:30:00,
2013-05-10 01:45:00,57.2,53.4,0.00,West,271,0.0,0.0,87,0.00,,,0.00,Weather View 32 v70,2013-05-10 05:45:00,
2013-05-10 02:00:00,57.0,53.5,0.00,West,271,0.0,0.0,88,0.00,,,0.00,Weather View 32 v70,2013-05-10 06:00:00,
2013-05-10 02:15:00,56.8,53.3,0.00,West,271,0.0,0.0,88,0.00,,,0.00,Weather View 32 v70,2013-05-10 06:15:00,
2013-05-10 02:30:00,57.0,54.1,0.00,West,271,0.0,0.0,90,0.00,,,0.00,Weather View 32 v70,2013-05-10 06:30:00,
2013-05-10 02:45:00,56.8,53.6,0.00,West,271,0.0,0.0,89,0.00,,,0.00,Weather View 32 v70,2013-05-10 06:45:00,
2013-05-10 03:00:00,56.7,53.4,0.00,West,271,0.0,0.0,89,0.00,,,0.00,Weather View 32 v70,2013-05-10 07:00:00,
2013-05-10 03:15:00,56.7,53.8,0.00,West,271,0.0,0.0,90,0.00,,,0.00,Weather View 32 v70,2013-05-10 07:15:00,
2013-05-10 03:30:00,56.8,53.9,0.00,West,278,0.0,5.0,90,0.00,,,0.00,Weather View 32 v70,2013-05-10 07:30:00,
2013-05-10 03:45:00,57.0,53.5,0.00,SW,216,0.0,5.0,88,0.00,,,0.00,Weather View 32 v70,2013-05-10 07:45:00,
2013-05-10 04:00:00,57.2,53.4,0.00,ESE,102,0.0,5.0,87,0.00,,,0.00,Weather View 32 v70,2013-05-10 08:00:00,
2013-05-10 04:15:00,57.2,52.4,0.00,SSW,194,0.0,5.0,84,0.00,,,0.00,Weather View 32 v70,2013-05-10 08:15:00,
2013-05-10 04:30:00,57.2,52.1,0.00,SSW,194,0.0,4.0,83,0.00,,,0.00,Weather View 32 v70,2013-05-10 08:30:00,
2013-05-10 04:45:00,56.7,51.9,0.00,SSW,194,0.0,4.0,84,0.00,,,0.00,Weather View 32 v70,2013-05-10 08:45:00,
2013-05-10 05:00:00,56.5,52.0,0.00,SSW,194,0.0,0.0,85,0.00,,,0.00,Weather View 32 v70,2013-05-10 09:00:00,
2013-05-10 05:15:00,56.1,52.0,0.00,SSW,194,0.0,0.0,86,0.00,,,0.00,Weather View 32 v70,2013-05-10 09:15:00,
2013-05-10 05:30:00,55.8,52.3,0.00,SSW,194,0.0,0.0,88,0.00,,,0.00,Weather View 32 v70,2013-05-10 09:30:00,
2013-05-10 05:45:00,55.2,52.3,0.00,SSW,194,0.0,0.0,90,0.00,,,0.00,Weather View 32 v70,2013-05-10 09:45:00,
2013-05-10 06:00:00,55.4,52.8,0.00,SSW,194,0.0,0.0,91,0.00,,,0.00,Weather View 32 v70,2013-05-10 10:00:00,
2013-05-10 06:15:00,56.7,53.4,0.00,WNW,287,0.0,4.0,89,0.00,,,0.00,Weather View 32 v70,2013-05-10 10:15:00,
2013-05-10 06:30:00,56.8,53.0,0.00,WNW,287,0.0,4.0,87,0.00,,,0.00,Weather View 32 v70,2013-05-10 10:30:00,
2013-05-10 06:45:00,56.8,52.0,0.00,WNW,287,0.0,4.0,84,0.00,,,0.00,Weather View 32 v70,2013-05-10 10:45:00,
2013-05-10 07:00:00,57.0,52.5,0.00,WNW,287,0.0,4.0,85,0.00,,,0.00,Weather View 32 v70,2013-05-10 11:00:00,
2013-05-10 07:15:00,57.4,52.9,0.00,WNW,287,0.0,0.0,85,0.00,,,0.00,Weather View 32 v70,2013-05-10 11:15:00,
2013-05-10 07:30:00,58.1,53.0,0.00,WNW,287,0.0,2.0,83,0.00,,,0.00,Weather View 32 v70,2013-05-10 11:30:00,
2013-05-10 07:45:00,58.5,52.6,0.00,WNW,287,0.0,4.0,81,0.00,,,0.00,Weather View 32 v70,2013-05-10 11:45:00,
2013-05-10 08:00:00,59.4,51.8,0.00,WNW,287,0.0,4.0,76,0.00,,,0.00,Weather View 32 v70,2013-05-10 12:00:00,
2013-05-10 08:15:00,60.6,51.5,0.00,WNW,287,0.0,4.0,72,0.00,,,0.00,Weather View 32 v70,2013-05-10 12:15:00,
2013-05-10 08:30:00,61.9,51.6,0.00,WNW,287,0.0,4.0,69,0.00,,,0.00,Weather View 32 v70,2013-05-10 12:30:00,
2013-05-10 08:45:00,63.3,51.3,0.00,WNW,287,2.0,4.0,65,0.00,,,0.00,Weather View 32 v70,2013-05-10 12:45:00,
2013-05-10 09:00:00,65.1,52.2,0.00,West,276,0.0,4.0,63,0.00,,,0.00,Weather View 32 v70,2013-05-10 13:00:00,
2013-05-10 09:15:00,66.7,51.9,0.00,North,357,2.0,4.0,59,0.00,,,0.00,Weather View 32 v70,2013-05-10 13:15:00,
2013-05-10 09:30:00,68.2,49.3,0.00,West,279,0.0,5.0,51,0.00,,,0.00,Weather View 32 v70,2013-05-10 13:30:00,
2013-05-10 09:45:00,69.4,49.4,0.00,West,276,3.0,5.0,49,0.00,,,0.00,Weather View 32 v70,2013-05-10 13:45:00,
2013-05-10 10:00:00,71.1,47.4,0.00,West,272,0.0,5.0,43,0.00,,,0.00,Weather View 32 v70,2013-05-10 14:00:00,
2013-05-10 10:15:00,72.5,48.0,0.00,WSW,251,4.0,5.0,42,0.00,,,0.00,Weather View 32 v70,2013-05-10 14:15:00,
2013-05-10 10:30:00,72.9,45.7,0.00,NE,55,0.0,5.0,38,0.00,,,0.00,Weather View 32 v70,2013-05-10 14:30:00,
2013-05-10 10:45:00,73.8,44.3,0.00,West,273,3.0,5.0,35,0.00,,,0.00,Weather View 32 v70,2013-05-10 14:45:00,
2013-05-10 11:00:00,74.5,41.8,0.00,WNW,285,0.0,5.0,31,0.00,,,0.00,Weather View 32 v70,2013-05-10 15:00:00,
2013-05-10 11:15:00,75.4,44.2,0.00,WSW,240,0.0,6.0,33,0.00,,,0.00,Weather View 32 v70,2013-05-10 15:15:00,
2013-05-10 11:30:00,75.0,41.4,0.00,SE,145,4.0,6.0,30,0.00,,,0.00,Weather View 32 v70,2013-05-10 15:30:00,
2013-05-10 11:45:00,75.6,41.9,0.00,NW,305,0.0,6.0,30,0.00,,,0.00,Weather View 32 v70,2013-05-10 15:45:00,
2013-05-10 12:00:00,76.5,43.5,0.00,South,175,4.0,8.0,31,0.00,,,0.00,Weather View 32 v70,2013-05-10 16:00:00,
2013-05-10 12:15:00,77.4,45.1,0.00,SE,137,4.0,9.0,32,0.00,,,0.00,Weather View 32 v70,2013-05-10 16:15:00,
2013-05-10 12:30:00,77.5,44.4,0.00,SW,216,4.0,9.0,31,0.00,,,0.00,Weather View 32 v70,2013-05-10 16:30:00,
2013-05-10 12:45:00,76.5,43.5,0.00,SE,127,4.0,9.0,31,0.00,,,0.00,Weather View 32 v70,2013-05-10 16:45:00,
2013-05-10 13:00:00,77.5,38.8,0.00,WSW,244,3.0,9.0,25,0.00,,,0.00,Weather View 32 v70,2013-05-10 17:00:00,
2013-05-10 13:15:00,77.9,38.1,0.00,West,280,3.0,8.0,24,0.00,,,0.00,Weather View 32 v70,2013-05-10 17:15:00,
2013-05-10 13:30:00,78.3,41.4,0.00,West,264,4.0,9.0,27,0.00,,,0.00,Weather View 32 v70,2013-05-10 17:30:00,
2013-05-10 13:45:00,79.0,42.1,0.00,SW,235,0.0,9.0,27,0.00,,,0.00,Weather View 32 v70,2013-05-10 17:45:00,
2013-05-10 14:00:00,78.3,39.5,0.00,South,190,4.0,9.0,25,0.00,,,0.00,Weather View 32 v70,2013-05-10 18:00:00,
2013-05-10 14:15:00,79.3,40.4,0.00,NNW,328,2.0,9.0,25,0.00,,,0.00,Weather View 32 v70,2013-05-10 18:15:00,
2013-05-10 14:30:00,80.2,41.1,0.00,West,271,4.0,8.0,25,0.00,,,0.00,Weather View 32 v70,2013-05-10 18:30:00,
2013-05-10 14:45:00,79.5,38.4,0.00,WSW,246,3.0,8.0,23,0.00,,,0.00,Weather View 32 v70,2013-05-10 18:45:00,
2013-05-10 15:00:00,79.7,40.7,0.00,SE,141,3.0,8.0,25,0.00,,,0.00,Weather View 32 v70,2013-05-10 19:00:00,
2013-05-10 15:15:00,79.3,41.4,0.00,SW,233,3.0,8.0,26,0.00,,,0.00,Weather View 32 v70,2013-05-10 19:15:00,
2013-05-10 15:30:00,79.5,38.4,0.00,East,98,0.0,8.0,23,0.00,,,0.00,Weather View 32 v70,2013-05-10 19:30:00,
2013-05-10 15:45:00,79.0,40.1,0.00,SW,229,4.0,8.0,25,0.00,,,0.00,Weather View 32 v70,2013-05-10 19:45:00,
2013-05-10 16:00:00,79.2,42.2,0.00,SSW,207,3.0,8.0,27,0.00,,,0.00,Weather View 32 v70,2013-05-10 20:00:00,
2013-05-10 16:15:00,80.2,44.1,0.00,SSW,204,0.0,6.0,28,0.00,,,0.00,Weather View 32 v70,2013-05-10 20:15:00,
2013-05-10 16:20:00,80.2,44.1,0.00,SSW,204,0.0,6.0,28,0.00,,,0.00,Weather View 32 v70,2013-05-10 20:20:00,
2013-05-10 16:30:00,79.5,44.4,0.00,SSW,203,0.0,6.0,29,0.00,,,0.00,Weather View 32 v70,2013-05-10 20:30:00,
2013-05-10 16:45:00,79.3,43.3,0.00,South,187,4.0,6.0,28,0.00,,,0.00,Weather View 32 v70,2013-05-10 20:45:00,
2013-05-10 17:00:00,78.8,41.9,0.00,WSW,250,3.0,7.0,27,0.00,,,0.00,Weather View 32 v70,2013-05-10 21:00:00,
2013-05-10 17:15:00,79.0,41.1,0.00,SSW,197,4.0,7.0,26,0.00,,,0.00,Weather View 32 v70,2013-05-10 21:15:00,
2013-05-10 17:21:00,79.0,41.1,0.00,SSW,197,4.0,7.0,26,0.00,,,0.00,Weather View 32 v70,2013-05-10 21:21:00,
2013-05-10 17:30:00,78.6,41.7,0.00,SSW,212,3.0,7.0,27,0.00,,,0.00,Weather View 32 v70,2013-05-10 21:30:00,
2013-05-10 17:45:00,76.8,44.6,0.00,SSW,205,3.0,7.0,32,0.00,,,0.00,Weather View 32 v70,2013-05-10 21:45:00,
2013-05-10 18:00:00,75.0,45.4,0.00,SSW,210,4.0,9.0,35,0.00,,,0.00,Weather View 32 v70,2013-05-10 22:00:00,
2013-05-10 18:15:00,73.8,45.1,0.00,SSW,205,2.0,9.0,36,0.00,,,0.00,Weather View 32 v70,2013-05-10 22:15:00,
2013-05-10 18:21:00,73.8,45.1,0.00,SSW,205,2.0,9.0,36,0.00,,,0.00,Weather View 32 v70,2013-05-10 22:21:00,
2013-05-10 18:30:00,72.5,45.4,0.00,SSW,207,5.0,9.0,38,0.00,,,0.00,Weather View 32 v70,2013-05-10 22:30:00,
2013-05-10 18:45:00,71.8,46.1,0.00,SSW,194,2.0,9.0,40,0.00,,,0.00,Weather View 32 v70,2013-05-10 22:45:00,
2013-05-10 19:00:00,71.4,47.1,0.00,ENE,75,3.0,8.0,42,0.00,,,0.00,Weather View 32 v70,2013-05-10 23:00:00,
2013-05-10 19:15:00,70.9,47.2,0.00,SE,136,3.0,6.0,43,0.00,,,0.00,Weather View 32 v70,2013-05-10 23:15:00,
2013-05-10 19:22:00,70.9,47.2,0.00,SE,136,3.0,6.0,43,0.00,,,0.00,Weather View 32 v70,2013-05-10 23:22:00,
2013-05-10 19:30:00,70.7,48.3,0.00,ENE,77,0.0,6.0,45,0.00,,,0.00,Weather View 32 v70,2013-05-10 23:30:00,
2013-05-10 19:45:00,70.0,48.2,0.00,SSE,151,4.0,5.0,46,0.00,,,0.00,Weather View 32 v70,2013-05-10 23:45:00,
2013-05-10 20:00:00,69.4,48.8,0.00,South,190,0.0,5.0,48,0.00,,,0.00,Weather View 32 v70,2013-05-11 00:00:00,
2013-05-10 20:15:00,68.9,48.9,0.00,South,190,0.0,5.0,49,0.00,,,0.00,Weather View 32 v70,2013-05-11 00:15:00,
2013-05-10 20:23:00,68.9,48.9,0.00,South,190,0.0,5.0,49,0.00,,,0.00,Weather View 32 v70,2013-05-11 00:23:00,
2013-05-10 20:30:00,68.4,49.5,0.00,South,185,0.0,4.0,51,0.00,,,0.00,Weather View 32 v70,2013-05-11 00:30:00,
2013-05-10 20:45:00,67.8,50.0,0.00,South,185,0.0,4.0,53,0.00,,,0.00,Weather View 32 v70,2013-05-11 00:45:00,
2013-05-10 21:00:00,67.5,50.7,0.00,South,185,0.0,4.0,55,0.00,,,0.00,Weather View 32 v70,2013-05-11 01:00:00,
2013-05-10 21:15:00,67.1,51.3,0.00,South,189,0.0,3.0,57,0.00,,,0.00,Weather View 32 v70,2013-05-11 01:15:00,
2013-05-10 21:23:00,67.1,51.3,0.00,South,189,0.0,3.0,57,0.00,,,0.00,Weather View 32 v70,2013-05-11 01:23:00,
2013-05-10 21:30:00,66.9,51.6,0.00,South,189,0.0,0.0,58,0.00,,,0.00,Weather View 32 v70,2013-05-11 01:30:00,
2013-05-10 21:45:00,66.7,51.0,0.00,South,189,0.0,0.0,57,0.00,,,0.00,Weather View 32 v70,2013-05-11 01:45:00,
2013-05-10 22:00:00,66.4,51.1,0.00,South,189,0.0,0.0,58,0.00,,,0.00,Weather View 32 v70,2013-05-11 02:00:00,
2013-05-10 22:15:00,66.0,51.2,0.00,ESE,120,0.0,0.0,59,0.00,,,0.00,Weather View 32 v70,2013-05-11 02:15:00,
2013-05-10 22:24:00,66.0,51.2,0.00,ESE,120,0.0,0.0,59,0.00,,,0.00,Weather View 32 v70,2013-05-11 02:24:00,
2013-05-10 22:30:00,65.8,51.5,0.00,SSE,168,0.0,0.0,60,0.00,,,0.00,Weather View 32 v70,2013-05-11 02:30:00,
2013-05-10 22:45:00,65.5,52.5,0.00,SE,142,0.0,0.0,63,0.00,,,0.00,Weather View 32 v70,2013-05-11 02:45:00,
2013-05-10 23:00:00,65.1,52.6,0.00,SE,142,0.0,0.0,64,0.00,,,0.00,Weather View 32 v70,2013-05-11 03:00:00,
2013-05-10 23:15:00,64.8,52.7,0.00,SE,142,0.0,0.0,65,0.00,,,0.00,Weather View 32 v70,2013-05-11 03:15:00,
2013-05-10 23:30:00,64.4,53.6,0.00,West,279,3.0,4.0,68,0.00,,,0.00,Weather View 32 v70,2013-05-11 03:30:00,
2013-05-10 23:45:00,63.9,53.9,0.00,ESE,108,0.0,4.0,70,0.00,,,0.00,Weather View 32 v70,2013-05-11 03:45:00,